Flag for Bahamas Weather past 2 weeks in Freeport, Bahamas

Now
53 °F

Passing clouds.


Feels Like: 49 °F
Forecast: 65 / 70 °F
Wind: 14 mph from Northwest

Location: Palm Beach International Airport

Current Time: Jan 25, 2015 at 10:02:34 AM

Latest Report: Jan 25, 2015 at 8:53 AM


Visibility: 10 mi

Pressure: 30.09 "Hg

Humidity: 61%

Dew point: 40 °F

Location of FreeportLocation

Historic Weather in Freeport — Graph

°F

Freeport temperature yesterday

Maximum temperature yesterday: 77 °F (at 9:53 AM)
Minimum temperature yesterday: 55 °F (at 11:53 PM)
Average temperature yesterday: 69 °F

Past Weeks' High & Low Weather Summary

 TemperatureHumidityPressure
High81 °F (Jan 12, 10:53 AM)97% (Jan 19, 6:53 AM)30.32 "Hg (Jan 19, 6:53 AM)
Low47 °F (Jan 25, 6:53 AM)35% (Jan 18, 3:53 PM)29.87 "Hg (Jan 24, 6:53 AM)
Average70 °F74%30.09 "Hg
* Reported Jan 10 8:53 AM — Jan 25 8:53 AM, Freeport, Weather by CustomWeather, © 2014

Note: Actual official high and low records may vary slightly from our data, if they occured in-between our weather recording intervals... More about our weather records

Advertising

Freeport weather history for previous 24 hours

 ConditionsComfort  
Time TempWeatherWind HumidityBarometerVisibility
8:53 AM
Jan 25
53 °FPassing clouds.14 mph61%30.09 "Hg10 mi
7:53 AM50 °FPassing clouds.10 mph74%30.08 "Hg10 mi
6:53 AM47 °FPassing clouds.9 mph86%30.06 "Hg10 mi
5:53 AM48 °FClear.10 mph89%30.04 "Hg10 mi
4:53 AM49 °FClear.10 mph86%30.02 "Hg10 mi
3:53 AM50 °FClear.10 mph86%30.01 "Hg10 mi
2:53 AM51 °FPassing clouds.13 mph83%30.02 "Hg10 mi
1:53 AM53 °FClear.13 mph83%30.01 "Hg10 mi
12:53 AM55 °FClear.12 mph83%30.00 "Hg10 mi
11:53 PM
Jan 24
55 °FClear.7 mph83%30.00 "Hg10 mi
10:53 PM57 °FClear.10 mph81%30.00 "Hg10 mi
9:53 PM59 °FClear.9 mph75%29.99 "Hg10 mi
8:53 PM60 °FClear.9 mph72%29.98 "Hg10 mi
7:53 PM62 °FClear.10 mph67%29.98 "Hg10 mi
6:53 PM64 °FPassing clouds.12 mph63%29.94 "Hg10 mi
5:53 PM67 °FBroken clouds.14 mph57%29.92 "Hg10 mi
4:53 PM70 °FBroken clouds.14 mph59%29.89 "Hg10 mi
3:53 PM70 °FPartly sunny.16 mph64%29.89 "Hg10 mi
2:53 PM70 °FPartly sunny.20 mph68%29.89 "Hg10 mi
1:53 PM69 °FPartly sunny.15 mph70%29.90 "Hg10 mi
12:53 PM67 °FPartly sunny.20 mph79%29.92 "Hg10 mi
11:53 AM67 °FLight rain. Fog.22 mph90%29.95 "Hg5 mi
10:53 AM77 °FPartly sunny.18 mph69%29.92 "Hg10 mi
Weather by CustomWeather, © 2014

See weather overviewHow to use our weather pages